GEFSMA_850_meantemp_054.txt.gz
Temperature
18 18 18 18 18 18 18 18 18 18 18 18 18 18 18 18 18 18 18 18 18 18 18 18 18 18 18 18 18 17 17 17 17 17 17 17 17 17 17 17 17 17 17
18 18 18 18 18 18 18 17 17 17 17 17 17 17 18 18 18 18 18 18 18 18 18 18 18 18 18 18 18 18 17 17 17 17 17 17 17 17 17 17 17 17 17
18 18 18 18 18 18 17 17 17 17 17 17 17 17 17 17 17 18 18 18 18 18 18 18 18 18 18 18 18 18 18 17 17 17 17 17 17 17 17 17 17 16 16
18 18 18 18 18 17 17 17 17 17 17 17 17 17 17 17 17 17 17 18 18 18 18 18 18 18 18 18 18 18 18 18 17 17 17 17 17 17 17 17 17 16 16
18 18 18 18 18 17 17 17 17 17 17 17 17 17 17 17 17 17 17 17 17 18 18 18 18 18 18 18 18 18 18 18 18 17 17 17 17 17 17 17 17 17 16
18 18 18 18 18 18 17 17 17 17 17 16 17 17 17 17 17 17 17 17 17 17 17 17 17 18 18 18 18 18 18 18 18 17 17 17 17 17 17 17 17 17 17
17 18 18 18 18 18 18 17 17 17 17 17 17 17 17 17 17 17 17 17 17 17 17 17 17 17 18 18 18 18 17 18 17 18 17 17 17 17 17 17 17 17 17
17 17 18 18 18 18 18 18 18 17 17 17 16 17 17 17 17 16 16 16 16 16 17 17 17 17 17 18 18 18 18 17 17 17 17 17 17 17 17 17 17 17 17
17 17 17 18 18 18 18 18 18 17 17 17 17 16 16 16 16 16 16 16 16 16 16 17 17 17 17 17 18 18 18 17 17 17 17 17 17 17 17 17 17 17 17
17 17 17 17 17 17 17 17 17 17 17 17 17 16 16 16 16 16 16 16 16 16 16 16 16 17 17 17 17 18 17 17 17 17 17 17 17 17 17 17 17 17 17
16 16 16 16 16 16 17 17 17 17 17 17 16 16 16 16 15 15 15 16 16 16 15 16 16 16 17 17 17 17 17 17 17 17 17 17 17 17 17 17 17 17 17
15 15 15 15 15 15 16 16 16 16 16 16 16 16 16 15 15 15 14 15 15 16 15 15 16 16 16 16 17 17 17 17 17 17 17 17 17 17 17 16 16 17 17
14 14 14 14 14 14 15 15 15 15 15 16 16 16 15 15 15 14 14 14 14 14 15 15 15 15 15 16 16 16 16 16 17 17 17 17 17 16 16 16 16 16 16
13 13 13 13 13 13 13 14 14 14 14 15 15 15 15 15 15 14 14 14 13 13 14 14 14 15 15 15 15 15 16 16 16 16 16 16 16 16 16 16 16 16 16
11 11 11 11 12 12 12 12 13 13 13 14 14 14 15 15 15 14 14 13 13 13 13 14 14 14 14 14 14 15 15 15 16 16 16 16 16 16 16 16 16 16 16
11 11 11 11 11 11 11 11 11 12 12 13 13 13 14 14 14 14 14 14 13 13 13 13 13 13 13 13 13 14 14 14 15 15 15 15 15 15 15 16 16 16 16
11 10 10 10 10 10 10 10 10 11 11 12 12 12 13 13 13 14 14 13 13 13 13 13 13 13 13 13 13 13 13 14 14 14 14 14 15 15 15 15 15 15 15
10 10 10 10 10 9 9 10 10 10 10 11 11 12 12 13 13 13 13 13 13 13 13 13 13 13 13 13 12 12 12 12 13 13 13 14 14 14 14 14 14 14 15
10 10 10 10 10 9 9 9 9 9 9 10 10 11 11 12 12 13 13 13 13 13 13 12 13 13 12 12 12 12 12 12 12 12 12 13 13 13 13 13 13 14 14
10 10 10 10 9 9 9 9 9 9 9 9 9 10 10 11 11 12 12 13 13 13 13 12 12 12 12 12 12 12 11 11 11 11 12 12 12 12 12 12 12 13 13
10 10 10 9 9 9 9 9 9 9 9 9 9 9 10 10 11 11 11 12 12 12 12 12 12 12 12 12 12 11 11 11 11 11 11 11 11 11 12 12 12 12 12
10 10 9 9 9 9 9 9 9 9 8 9 9 9 9 10 10 11 11 11 12 12 12 12 12 12 12 12 12 12 11 11 10 10 11 11 11 11 11 11 11 11 11
9 9 9 9 9 9 9 9 8 8 8 8 8 9 9 10 10 10 11 11 11 12 12 12 12 12 12 12 12 11 11 11 11 10 10 10 10 10 10 10 10 10 11
9 9 9 9 9 9 8 8 8 8 8 8 8 8 9 9 10 10 10 11 11 11 12 12 12 12 13 13 12 12 11 11 11 10 10 10 10 10 10 10 10 10 10
8 8 8 8 8 8 8 8 8 8 8 8 8 8 8 9 9 9 10 10 11 11 11 12 12 12 12 12 12 11 11 11 10 9 10 10 9 9 9 9 9 9 9
6 7 7 7 8 8 8 8 8 7 7 8 8 8 8 8 9 9 9 10 10 11 11 11 11 11 12 11 11 11 11 11 11 9 9 10 9 9 8 8 8 8 8

GEFSMA_850_meantemp_060.txt.gz
Temperature
18 18 18 18 18 18 18 18 18 17 17 17 17 17 17 17 17 18 18 18 18 18 18 18 18 18 18 18 18 18 17 17 17 17 17 17 17 17 17 17 17 17 17
18 18 17 18 18 18 17 18 17 17 17 17 17 17 17 17 17 17 17 18 18 18 18 18 18 18 18 18 18 18 17 17 17 17 17 17 17 17 17 17 17 17 17
18 18 18 18 18 18 17 17 17 17 17 17 17 17 17 17 17 17 17 17 18 18 18 18 18 18 18 18 18 18 18 17 17 17 17 17 17 17 17 17 17 17 17
17 17 17 17 17 17 17 17 17 17 17 17 17 17 17 17 17 17 17 17 17 17 18 18 18 18 18 18 18 18 18 18 18 18 17 17 17 17 17 17 17 17 17
17 16 17 17 17 17 17 17 17 17 17 17 17 17 17 17 17 17 17 17 17 17 17 17 18 18 18 18 18 18 18 18 18 18 17 17 17 17 17 17 17 17 17
16 16 16 16 17 17 17 17 17 17 17 17 17 17 17 17 17 17 17 17 17 17 17 17 17 17 18 18 18 18 18 18 18 18 18 18 17 17 17 17 17 17 17
16 16 16 16 16 16 17 16 16 16 16 16 17 17 17 17 17 17 17 17 17 17 17 17 17 17 17 17 18 18 18 18 18 17 17 17 17 17 17 17 17 17 17
15 15 16 16 16 16 16 16 16 16 16 16 17 18 19 19 17 17 17 17 17 17 17 17 16 16 17 17 17 17 17 17 17 17 17 17 17 17 17 17 17 17 17
15 15 15 16 16 16 16 16 16 16 16 16 16 17 19 20 19 18 17 17 16 16 17 17 16 16 16 16 16 17 17 17 17 17 17 17 17 17 17 17 17 17 17
15 15 15 15 15 15 15 15 16 16 16 16 16 16 17 18 19 19 17 17 16 16 16 16 16 16 16 16 16 17 17 17 17 17 17 17 17 17 17 17 17 17 17
14 14 14 15 15 15 15 15 15 15 16 16 16 16 16 16 17 18 19 18 17 17 16 16 16 16 16 16 16 16 17 17 17 17 17 17 17 17 17 17 17 17 17
14 14 14 14 14 14 14 14 15 15 15 15 16 16 16 17 17 17 18 17 18 17 16 16 16 16 16 16 16 16 17 17 17 17 17 17 17 17 17 17 17 16 16
13 13 13 13 13 13 13 13 13 14 14 14 15 15 16 16 17 17 17 18 17 17 16 16 16 16 15 16 16 16 16 17 17 17 17 17 17 17 17 16 16 16 16
13 13 12 12 12 12 12 12 12 13 13 13 14 14 14 15 15 16 16 17 17 18 17 16 16 15 15 15 15 16 16 16 16 17 17 17 16 16 16 16 16 16 16
12 12 12 12 11 11 11 11 11 12 12 12 13 13 14 14 14 15 15 16 16 18 18 16 16 15 15 15 15 15 15 16 16 16 16 16 16 16 16 16 16 16 16
11 11 11 11 11 11 11 10 11 11 11 11 11 12 13 13 14 14 14 15 15 16 17 17 15 15 14 14 14 15 15 15 15 15 16 16 16 16 16 16 16 16 16
11 11 11 11 10 10 10 10 10 10 10 10 10 11 11 12 13 13 13 14 14 15 15 16 15 14 14 14 14 14 14 14 14 15 15 15 15 16 16 16 16 16 16
11 11 11 10 10 10 10 10 10 10 10 10 10 10 10 11 11 12 12 13 13 14 14 15 15 14 14 14 13 13 13 13 14 14 14 14 15 15 15 15 15 15 15
10 10 10 10 10 10 10 10 10 10 10 10 10 10 10 10 10 11 11 12 12 13 13 14 14 14 13 13 13 13 13 13 13 13 13 14 14 14 14 14 14 15 15
9 9 10 10 10 10 10 10 10 10 9 9 9 9 9 9 10 10 10 11 11 12 12 13 13 13 13 13 13 13 12 12 12 12 12 13 13 13 13 13 13 14 14
9 9 9 9 9 9 10 10 10 10 9 9 9 9 9 9 9 9 10 10 11 11 12 12 13 13 13 13 12 12 12 12 12 12 12 12 12 12 12 12 12 13 13
8 8 8 8 9 9 10 9 9 9 9 9 9 9 9 9 9 9 9 10 10 11 11 12 12 13 13 13 12 12 12 12 11 11 11 11 11 11 11 12 12 12 12
7 7 7 7 8 8 9 9 9 9 9 9 9 9 9 10 9 9 9 9 10 10 10 11 12 12 13 13 13 12 12 12 12 12 11 11 11 11 11 11 11 11 11
6 6 6 7 7 7 8 9 9 9 9 9 9 9 9 9 9 9 9 9 9 10 10 11 11 12 12 12 13 13 12 12 11 11 11 10 10 10 10 11 11 11 11
5 6 6 6 6 7 7 8 8 8 8 8 9 9 8 9 8 8 8 9 9 10 10 11 11 11 12 12 12 12 11 11 11 10 10 10 9 9 9 10 10 10 10
5 5 5 6 6 6 7 7 8 8 8 8 8 8 8 8 8 8 8 8 9 9 10 10 11 11 11 11 12 12 12 11 11 10 10 10 9 9 8 8 9 9 9

GEFSMA_850_meantemp_066.txt.gz
Temperature
18 18 18 18 18 18 18 18 18 18 18 18 18 18 18 18 18 18 18 18 18 18 18 19 19 19 19 18 18 18 18 18 18 18 18 18 18 18 18 17 17 17 17
18 18 18 18 18 18 18 18 18 18 18 18 18 18 18 18 18 18 18 18 18 18 18 18 19 19 19 19 18 18 18 18 18 18 18 18 18 18 18 18 17 17 17
18 18 18 18 18 18 18 18 18 18 18 18 18 18 18 18 18 18 18 18 18 18 18 18 18 19 19 18 18 18 18 18 18 18 18 18 18 18 18 18 18 17 17
17 17 17 17 17 17 17 17 17 17 17 17 17 18 18 18 18 18 18 18 18 18 18 18 18 18 18 18 18 18 18 18 18 18 18 18 18 18 18 17 17 18 17
17 17 17 17 17 17 17 17 17 17 17 17 17 18 18 18 18 18 18 18 18 18 18 18 18 18 18 18 18 18 18 18 18 18 18 18 18 18 17 17 17 17 17
17 16 16 16 16 16 16 16 16 16 16 17 17 17 18 18 18 18 18 18 18 18 18 18 18 18 18 18 18 18 18 18 18 18 18 18 18 18 17 17 17 17 17
16 16 16 16 16 16 16 16 16 16 16 16 16 17 18 18 18 18 18 18 18 18 18 18 18 18 18 18 18 18 18 18 18 18 18 18 18 17 17 17 17 17 17
16 16 15 16 15 15 15 16 15 16 16 16 16 17 17 18 18 18 18 18 18 18 18 18 18 18 17 17 18 18 18 18 18 18 18 17 17 17 17 17 17 17 17
15 15 15 15 15 15 15 15 15 15 16 16 16 17 17 18 19 19 19 18 18 18 18 18 18 18 17 17 17 17 17 17 17 17 17 17 17 17 17 17 17 17 17
15 15 15 15 15 15 15 15 15 15 15 16 16 16 17 17 18 18 19 19 19 18 18 18 18 18 17 17 17 17 17 17 17 17 17 17 17 17 17 17 17 17 17
15 15 14 14 14 14 14 14 15 15 15 15 16 16 16 17 17 18 18 18 18 18 18 18 18 18 17 17 17 17 17 17 17 17 17 17 17 17 17 17 17 17 17
15 15 14 14 14 14 14 14 14 14 15 15 15 16 16 16 17 17 18 18 18 18 18 18 18 18 17 17 17 17 17 17 17 17 17 17 17 17 17 17 17 17 17
14 14 14 14 14 13 13 14 14 14 14 14 15 15 15 16 16 17 17 18 18 18 18 18 18 17 17 17 17 17 17 17 17 17 17 17 17 17 17 17 17 17 16
14 14 14 13 13 13 13 13 13 13 13 13 14 14 15 15 15 16 16 17 18 18 18 18 18 17 17 17 17 16 17 17 17 17 17 17 17 17 17 17 17 17 16
13 13 13 13 13 13 12 12 12 12 12 13 13 13 14 14 15 15 16 16 16 17 17 17 17 17 17 17 17 16 17 16 17 17 17 17 17 17 17 17 17 17 17
12 12 12 12 12 12 12 12 12 12 12 12 12 12 13 13 14 14 15 15 15 16 16 17 17 16 16 16 16 16 16 16 16 16 16 16 16 17 17 17 17 16 16
11 11 11 11 12 12 11 11 11 11 11 11 11 12 12 12 13 13 14 14 15 15 15 16 16 16 16 16 16 15 15 15 15 15 16 16 16 16 16 16 16 16 16
10 10 10 11 11 11 11 11 11 11 11 11 11 11 11 11 12 12 13 13 14 14 14 15 15 15 15 15 15 15 15 15 15 15 15 15 15 15 16 16 16 16 16
10 10 10 10 10 10 10 11 11 11 11 11 11 11 11 11 11 12 12 12 13 13 14 14 14 14 15 15 14 14 14 14 14 14 14 15 15 15 15 15 15 15 16
9 9 9 9 9 9 10 10 10 10 10 11 11 11 11 10 11 11 11 11 12 12 13 13 13 14 14 14 14 14 13 13 13 13 14 14 14 14 14 14 15 15 15
8 8 8 8 9 9 9 9 10 10 10 10 10 10 10 10 10 10 11 11 11 11 12 12 12 13 13 13 13 14 13 13 13 13 13 13 13 13 14 14 14 14 14
8 8 8 8 8 8 8 9 9 9 10 10 10 10 10 10 10 10 10 10 10 11 11 11 12 12 13 13 13 13 13 12 12 12 12 12 12 13 13 13 13 13 13
7 7 7 7 7 7 8 8 8 9 9 9 9 9 9 10 10 10 10 10 10 10 11 11 11 12 12 13 13 13 13 13 13 13 12 11 11 12 12 12 12 13 13
7 7 7 7 7 7 7 7 8 8 8 9 9 9 9 10 10 10 10 10 10 10 10 11 11 12 12 12 13 13 13 12 12 12 12 11 11 11 11 12 12 12 12
7 7 7 7 7 7 7 7 7 7 8 8 8 9 9 9 10 10 9 10 10 10 10 10 11 11 11 11 12 12 12 12 12 11 11 11 11 11 11 11 11 11 11
7 7 7 7 6 7 7 7 7 7 7 8 8 8 9 9 9 9 9 9 9 10 10 10 10 11 11 11 11 12 12 12 12 11 11 11 11 11 10 10 11 11 11

GEFSMA_850_meantemp_072.txt.gz
Temperature
18 18 18 18 18 18 17 17 17 17 18 18 18 18 18 18 18 18 18 18 18 18 18 17 17 18 18 18 18 18 18 18 18 18 18 18 18 17 17 17 17 17 17
18 18 18 18 18 18 17 17 17 17 17 17 17 18 18 18 18 18 18 18 18 18 18 17 17 17 18 18 18 18 18 18 18 18 18 18 18 17 17 17 17 17 17
18 18 17 18 18 17 17 17 17 17 17 17 17 17 17 17 18 18 18 18 18 18 18 18 17 17 18 18 18 18 18 18 18 18 18 18 18 17 17 17 17 17 17
17 17 17 17 17 17 17 17 17 17 17 17 17 17 17 17 17 17 17 18 18 18 18 18 17 17 17 18 18 18 18 18 18 18 18 18 17 17 17 17 17 17 17
17 17 17 17 17 17 17 16 16 16 16 16 16 16 17 17 17 17 17 17 18 18 18 18 18 17 17 18 18 18 18 18 18 18 18 18 17 17 17 17 17 17 17
17 17 17 17 16 16 16 16 16 16 16 16 16 16 16 17 17 17 17 17 17 17 18 18 17 17 17 17 18 18 18 18 18 18 18 18 18 17 17 17 17 17 17
16 16 16 16 16 16 16 15 15 16 16 16 15 15 16 16 16 17 17 17 17 17 17 18 17 17 17 17 17 17 18 18 18 18 18 18 17 17 17 17 17 17 17
15 15 15 15 15 15 15 15 15 15 15 15 15 15 15 16 16 17 17 17 17 17 17 17 17 17 17 17 17 17 18 18 18 18 18 17 17 17 17 17 17 17 17
15 14 14 14 14 15 14 14 14 14 14 15 14 14 15 15 16 17 17 17 17 17 17 17 17 17 17 17 17 17 17 17 17 17 17 17 17 17 17 17 17 17 17
14 14 14 14 14 14 14 14 14 14 14 14 14 14 14 15 15 16 17 17 17 17 17 18 17 17 17 17 17 17 17 17 17 17 17 17 17 17 17 17 17 17 17
14 14 13 14 14 14 14 14 14 14 14 14 14 14 14 14 15 15 16 17 17 17 17 17 18 18 17 17 17 17 17 17 17 17 17 17 17 17 17 17 17 17 17
13 13 13 13 13 13 13 13 13 13 13 14 14 13 14 14 14 15 15 16 17 17 17 17 17 17 17 17 17 17 17 17 17 17 17 17 17 17 17 17 17 17 16
13 13 13 13 13 13 13 13 13 13 13 13 13 13 13 13 14 14 14 15 16 16 17 17 17 17 17 17 17 17 17 17 17 17 17 17 16 16 16 17 17 17 16
12 12 12 12 12 12 12 12 12 12 13 13 13 13 13 13 13 14 14 14 15 16 16 17 17 17 17 17 17 17 17 17 16 16 16 16 16 16 16 16 16 16 16
11 11 11 11 12 12 12 12 12 12 12 12 12 12 13 13 13 13 13 14 14 15 15 16 16 17 17 17 17 17 16 16 16 16 16 16 16 16 16 16 16 16 16
11 11 11 11 11 11 11 11 11 11 11 12 12 12 12 12 13 13 13 13 13 14 14 15 16 16 16 16 16 16 16 16 16 16 16 16 16 16 16 16 16 16 16
10 10 10 10 10 10 10 10 11 11 11 11 11 11 11 12 12 12 12 12 12 13 14 14 15 15 15 16 16 16 16 16 16 16 16 16 16 16 16 16 16 16 16
9 9 9 9 9 10 10 10 10 10 10 10 11 11 11 11 11 12 12 12 12 12 13 14 14 14 15 15 15 15 15 15 15 15 16 16 16 16 16 16 16 16 16
9 9 9 9 9 9 9 9 9 9 10 10 10 10 11 11 11 11 11 11 11 12 12 13 13 14 14 14 14 14 15 15 15 15 15 15 15 15 15 16 16 16 16
8 8 8 8 8 8 8 9 9 9 9 9 10 10 10 10 11 11 11 11 11 11 11 12 12 13 13 13 14 14 14 14 14 14 14 14 15 15 15 15 15 15 15
8 8 8 8 8 8 8 8 8 8 8 9 9 9 10 10 10 10 10 11 11 11 11 11 12 12 12 12 13 13 14 13 13 13 14 14 14 14 14 14 15 15 15
8 8 8 8 8 7 7 7 7 7 8 8 8 9 9 9 10 10 10 10 10 10 10 11 11 11 12 12 13 13 13 13 12 13 13 13 13 13 14 14 14 14 14
8 8 8 7 7 7 7 7 7 7 7 7 8 8 8 9 9 9 10 10 10 10 10 10 11 11 11 12 12 12 13 13 14 13 13 12 12 13 13 13 13 13 14
7 7 7 7 7 7 7 7 7 7 7 7 7 7 8 8 9 9 9 9 10 10 10 10 10 11 11 11 11 12 13 13 13 12 12 12 12 12 12 12 12 13 13
7 8 7 7 7 7 7 7 7 6 6 7 7 7 7 8 8 9 9 9 9 9 10 10 10 10 10 11 11 11 11 12 12 12 12 12 12 11 11 11 12 12 12
7 7 7 7 7 7 7 7 6 6 6 6 7 7 7 7 8 8 8 9 9 9 9 9 9 10 10 10 10 11 11 11 12 11 11 11 12 11 11 11 11 11 11

GEFSMA_850_meantemp_078.txt.gz
Temperature
18 18 18 17 17 17 17 17 17 17 17 17 17 17 17 17 17 17 18 18 17 17 17 17 17 17 17 17 17 17 17 17 18 18 17 17 17 17 17 17 17 17 16
17 17 17 17 17 17 17 17 17 17 17 17 17 17 17 17 17 17 17 17 17 17 17 17 17 17 17 17 17 17 17 17 17 17 17 17 17 17 17 17 17 17 16
17 17 17 17 17 16 17 17 17 17 17 17 17 17 17 17 17 17 17 17 17 17 17 17 17 17 17 17 17 17 17 17 17 17 17 17 17 17 17 17 17 17 17
17 17 17 16 16 16 16 16 16 16 16 16 16 16 16 17 17 17 17 17 17 17 17 17 17 17 17 17 17 17 17 17 17 17 17 17 17 17 17 17 17 17 17
16 16 16 16 16 16 16 16 16 16 16 16 16 16 16 16 16 17 17 17 17 17 17 17 17 17 17 17 17 17 17 17 17 17 17 17 17 17 17 17 17 17 17
16 16 16 16 16 16 16 16 15 15 15 15 15 15 16 16 16 17 17 17 17 17 17 17 17 17 17 17 17 17 17 17 17 17 17 17 17 17 17 17 17 17 17
16 16 15 15 15 15 15 15 15 15 15 15 15 15 15 16 16 16 16 17 17 17 17 17 17 17 17 17 17 17 17 17 17 17 17 17 17 17 17 17 17 17 17
15 15 15 15 15 14 14 14 14 14 14 14 14 14 14 15 16 16 16 16 16 16 16 16 17 17 17 17 17 17 17 17 17 17 17 17 17 17 17 17 17 17 17
15 14 14 14 14 14 14 14 14 14 14 14 13 13 13 14 14 15 16 16 16 16 16 16 16 17 17 17 17 17 17 17 17 17 17 17 17 17 17 17 17 17 17
14 14 14 14 13 13 13 13 13 13 13 13 13 13 13 13 13 14 15 15 15 15 16 16 16 17 17 17 17 17 17 17 17 17 17 17 17 17 17 17 17 17 17
13 13 13 13 13 13 13 13 13 13 13 13 13 13 13 13 13 13 13 14 15 15 15 16 16 16 17 17 17 17 17 17 17 17 17 17 17 17 17 17 17 17 17
13 13 13 13 12 12 12 12 12 12 12 12 12 12 12 13 13 13 13 14 14 15 15 15 16 16 16 17 17 17 17 17 17 17 17 17 17 17 17 17 17 17 16
12 12 12 12 12 12 12 12 12 12 12 12 12 12 12 12 12 12 12 13 13 14 15 15 16 16 16 17 17 17 17 17 17 17 17 17 17 16 16 16 16 16 16
11 11 11 11 11 11 11 11 11 12 12 12 12 12 12 12 12 12 12 12 13 13 14 15 15 16 16 16 17 17 17 17 16 16 16 16 16 16 16 16 16 16 16
11 10 10 10 10 10 10 11 11 11 11 11 11 11 11 12 12 12 12 12 12 12 13 14 15 15 16 16 16 16 16 16 16 16 16 16 16 16 16 16 16 16 16
10 10 10 10 10 10 10 10 10 10 11 11 11 11 11 11 11 11 11 12 12 12 12 13 14 15 15 15 16 16 16 16 16 16 16 16 16 16 16 16 16 16 16
9 9 9 9 9 9 9 9 9 10 10 10 10 10 11 11 11 11 11 11 11 11 12 12 13 14 14 15 15 15 16 16 16 16 16 16 16 16 16 16 16 16 16
9 9 9 9 9 9 9 9 9 9 9 9 10 10 10 10 10 11 11 11 11 11 11 12 12 13 13 14 14 15 15 15 15 15 15 15 15 16 16 16 16 16 16
9 9 8 8 8 8 8 8 8 8 9 9 9 9 10 10 10 10 10 10 11 11 11 11 12 12 12 13 13 14 14 14 15 15 15 15 15 15 15 16 16 16 16
8 8 8 8 8 8 8 8 8 8 8 8 8 9 9 9 9 10 10 10 10 10 10 11 11 11 12 12 12 13 13 13 14 14 14 15 15 15 15 15 15 15 15
8 8 8 8 8 8 8 8 8 8 8 8 8 8 8 9 9 9 9 10 10 10 10 10 10 11 11 11 12 12 12 12 13 13 13 14 14 14 15 15 15 15 15
8 8 8 8 8 8 8 8 7 7 8 8 8 8 8 8 8 9 9 9 9 10 10 10 10 10 11 11 11 11 12 12 11 12 12 13 13 14 14 14 15 15 15
8 8 8 8 8 8 8 7 7 7 7 7 7 8 8 8 8 8 8 9 9 9 9 10 10 10 11 11 11 11 11 11 12 12 12 12 12 13 13 14 14 14 14
8 8 8 8 8 8 8 7 7 7 7 7 7 7 7 7 7 8 8 8 9 9 9 9 9 10 10 10 11 11 11 11 11 11 12 12 12 12 12 13 13 13 13
8 8 8 8 8 8 7 7 7 7 7 7 7 7 7 7 7 7 7 7 8 8 9 9 9 9 10 10 10 10 10 11 11 11 11 11 11 12 12 12 12 13 13
8 8 8 8 7 7 7 7 7 7 7 7 7 7 7 7 7 7 7 7 8 8 8 9 9 9 9 9 10 10 10 10 10 10 11 11 11 11 11 11 12 12 12